[[{"header":{"parameterUnit":"m.s-1","parameterCategory":1,"la1":30.2991,"la2":30.254,"lo1":-89.0895,"lo2":-89.0444,"dy":0.0017,"dx":0.0017,"nx":28,"ny":28,"refTime":"2023-11-05T09:00:00:Z","depth":0,"parameterNumber":2,"parameterNumberName":"U-component_of_WINDS"},"data":[0,0,0,0,0,0,0,0,0,0,0,0,0,0,0,0,0,0,0,0,0,0,0,0,0,0,0,0,0,0,0,0,0,0,0,0,0,0,0,0,0,0,0,0,0,0,0,0,0,0,0,0,0,0,0,0,0,0,1.2812,1.2812,0,1.2871,1.2871,1.2872,1.2863,1.2862,1.2861,1.286,1.292,1.2923,1.2925,0,0,0,0,0,0,0,0,0,0,0,0,0,1.2689,1.2692,1.2811,1.2812,1.2813,1.2871,1.2871,1.2872,1.2863,1.2862,1.2861,1.286,1.2919,1.2922,1.2925,0,0,0,0,0,0,0,0,0,0,0,0,0,1.2745,1.2692,1.2811,1.2815,1.2816,1.287,1.2871,1.2872,1.2863,1.2862,1.286,1.2859,1.2918,1.2922,1.2926,1.298,0,0,1.2938,1.2939,0,0,0,0,0,0,0,0,1.2742,1.2749,1.2814,1.2815,1.2816,1.2858,1.285,1.2908,1.2864,1.2846,1.286,1.2858,1.2901,1.2906,1.292,1.2982,1.2985,1.2938,1.294,1.2942,1.2943,0,0,0,0,0,0,0,1.2738,1.2747,1.2835,1.2815,1.2816,1.2814,1.282,1.2861,1.2881,1.2847,1.2846,1.2854,1.2901,1.2917,1.2922,1.2986,1.2938,1.2941,1.2944,1.2945,1.3094,1.3096,0,0,0,0,0,0,1.2733,1.2744,1.2833,1.2837,1.2775,1.2817,1.2824,1.2846,1.288,1.2884,1.2855,1.2853,1.2911,1.2917,1.2924,1.2989,1.2942,1.2945,1.2948,1.3093,1.3095,1.3096,0,0,0,0,0,0,1.273,1.2741,1.2831,1.279,1.2801,1.2821,1.2846,1.2848,1.2864,1.2886,1.289,1.2867,1.291,1.2918,1.2966,1.2991,1.2947,1.2951,1.3091,1.3093,1.3095,1.3119,0,0,0,0,0,0,1.2727,1.274,1.2761,1.2791,1.2803,1.2872,1.2847,1.285,1.287,1.2868,1.2899,1.2902,1.2909,1.296,1.2969,1.2995,1.2954,1.3088,1.3092,1.3095,1.3116,1.3122,1.3127,0,0,0,0,0,1.2723,1.2766,1.2762,1.2773,1.283,1.2873,1.2881,1.2888,1.2872,1.2893,1.2908,1.2902,1.2986,1.2965,1.2975,1.3003,1.3087,1.3091,1.3094,1.3114,1.3121,1.3127,0,0,0,0,0,0,1.2739,1.277,1.2766,1.282,1.2844,1.2872,1.2899,1.2896,1.2925,1.2922,1.2929,1.2936,1.2984,1.2998,1.2974,1.3056,1.3034,1.304,1.3045,1.3052,1.3058,1.3053,1.2957,0,0,0,0,0,1.2749,1.2781,1.2806,1.2851,1.2864,1.2879,1.2898,1.2902,1.2927,1.2937,1.2955,1.298,1.3011,1.3033,1.3063,1.3118,1.3124,1.3141,1.3147,1.3151,1.3157,1.3186,1.3194,1.3109,1.3109,1.3109,0,0,1.2769,1.279,1.281,1.2855,1.2874,1.2908,1.2888,1.2924,1.2949,1.2943,1.2988,1.3002,1.303,1.3081,1.3104,1.3094,1.3181,1.3156,1.3159,1.3162,1.319,1.3198,1.3206,1.3111,1.3111,1.311,0,0,1.2824,1.2843,1.2882,1.2902,1.2931,1.2941,1.295,1.2978,1.2987,1.3033,1.3029,1.3058,1.3113,1.3133,1.315,1.3211,1.3207,1.3221,1.325,1.3278,1.3285,1.3291,1.3313,1.332,1.3226,1.3226,1.3226,0,1.2846,1.2897,1.2903,1.294,1.2959,1.2955,1.2994,1.3013,1.305,1.3064,1.3052,1.312,1.3139,1.3194,1.3209,1.3223,1.3234,1.3218,1.3284,1.329,1.3295,1.3316,1.3324,1.3228,1.3228,1.3228,1.3227,0,1.2922,1.2957,1.2985,1.3022,1.3044,1.3082,1.3094,1.3116,1.3117,1.3128,1.3174,1.3196,1.3231,1.3244,1.3246,1.33,1.3292,1.3282,1.326,1.3305,1.3324,1.3332,1.323,1.323,1.3229,1.3229,0,0,1.299,1.3028,1.3039,1.3055,1.3086,1.3113,1.315,1.3184,1.3203,1.3229,1.326,1.3306,1.3297,1.3316,1.332,1.3345,1.3391,1.3331,1.3332,1.3342,1.3451,1.3459,1.3468,1.3388,1.3389,1.3391,1.3449,0,1.3048,1.3114,1.312,1.318,1.3212,1.3207,1.3239,1.3262,1.3273,1.3301,1.3313,1.3346,1.3331,1.3342,1.3367,1.338,1.3413,1.3376,1.3417,1.3418,1.3411,1.3479,1.3487,1.3542,1.3457,1.3458,1.3459,0,1.3124,1.3152,1.3215,1.324,1.3254,1.3283,1.3315,1.3342,1.3367,1.3373,1.3394,1.3394,1.3432,1.3409,1.3461,1.3435,1.3452,1.3461,1.3464,1.3468,1.3442,1.3485,1.3559,1.3567,1.3471,1.347,1.3469,0,1.3167,1.322,1.3264,1.3278,1.331,1.333,1.3344,1.3367,1.3387,1.3414,1.3427,1.3458,1.3475,1.3499,1.3507,1.349,1.3559,1.3536,1.3565,1.3565,1.358,1.3579,1.3658,1.3591,1.3591,1.3591,1.359,0,1.3232,1.327,1.3284,1.3311,1.3354,1.336,1.3402,1.3415,1.3436,1.3465,1.3462,1.349,1.3499,1.3528,1.3534,1.3576,1.3584,1.359,1.3591,1.359,1.3589,1.3602,1.3598,1.3593,1.3592,1.3592,1.3591,0,1.3287,1.3298,1.3346,1.3371,1.3379,1.3409,1.343,1.3456,1.3466,1.3503,1.3512,1.3528,1.3562,1.3572,1.3613,1.3617,1.3666,1.3664,1.3658,1.3658,1.3686,1.3683,1.3776,1.3788,1.3712,1.3713,1.3714,0,1.3328,1.3357,1.3385,1.3405,1.342,1.3451,1.3471,1.3478,1.3499,1.3529,1.3551,1.3584,1.3611,1.3665,1.368,1.3711,1.3709,1.374,1.3714,1.3712,1.371,1.3708,1.3711,1.3745,1.3746,1.3746,1.3747,0,1.3398,1.3402,1.3431,1.3462,1.3486,1.351,1.3534,1.355,1.356,1.3583,1.3618,1.3639,1.368,1.3713,1.3744,1.3758,1.3754,1.3754,1.3763,1.3763,1.3758,1.3761,1.3671,1.3753,1.3752,1.3752,1.3751,1.3751,1.3448,1.3474,1.3497,1.3529,1.3548,1.357,1.3595,1.3608,1.3637,1.3671,1.3673,1.371,1.3733,1.3774,1.379,1.3819,1.381,1.3822,1.3825,1.3828,1.383,1.3753,1.3824,1.3824,1.3824,1.3824,1.3824,0,1.3519,1.3533,1.3563,1.3596,1.3621,1.3614,1.364,1.3661,1.3694,1.3716,1.3742,1.3781,1.3813,1.383,1.3861,1.3881,1.388,1.3889,1.3888,1.3891,1.3837,1.3826,1.3889,1.3889,1.3889,1.3889,1.3889,1.3889,1.3558,1.3601,1.3608,1.3659,1.3674,1.371,1.3725,1.3745,1.3762,1.3806,1.3832,1.3843,1.3863,1.3896,1.3924,1.3928,1.394,1.395,1.3953,1.3902,1.3895,1.3889,1.3879,1.3953,1.3953,1.4006,1.4006,1.4007]},{"header":{"parameterUnit":"m.s-1","parameterCategory":1,"la1":30.2991,"la2":30.254,"lo1":-89.0895,"lo2":-89.0444,"dy":0.0017,"dx":0.0017,"nx":28,"ny":28,"refTime":"2023-11-05T09:00:00:Z","depth":0,"parameterNumber":3,"parameterNumberName":"V-component_of_WINDS"},"data":[0,0,0,0,0,0,0,0,0,0,0,0,0,0,0,0,0,0,0,0,0,0,0,0,0,0,0,0,0,0,0,0,0,0,0,0,0,0,0,0,0,0,0,0,0,0,0,0,0,0,0,0,0,0,0,0,0,0,0.2077,0.2076,0,0.1998,0.1998,0.1997,0.1935,0.1934,0.1934,0.1933,0.1851,0.185,0.1848,0,0,0,0,0,0,0,0,0,0,0,0,0,0.217,0.2169,0.2077,0.2076,0.2075,0.1999,0.1998,0.1996,0.1935,0.1934,0.1934,0.1933,0.1852,0.185,0.1848,0,0,0,0,0,0,0,0,0,0,0,0,0,0.2115,0.2168,0.2077,0.2035,0.203,0.1999,0.1997,0.1996,0.1935,0.1934,0.1933,0.1932,0.1853,0.185,0.1848,0.1851,0,0,0.184,0.1839,0,0,0,0,0,0,0,0,0.2118,0.2111,0.2042,0.2038,0.2033,0.1975,0.2,0.1947,0.1935,0.1971,0.1933,0.1932,0.1893,0.1887,0.1875,0.1847,0.1844,0.184,0.1839,0.1838,0.1837,0,0,0,0,0,0,0,0.2122,0.2114,0.2046,0.2041,0.2035,0.2019,0.201,0.199,0.1938,0.1968,0.1963,0.1955,0.189,0.1877,0.1872,0.1843,0.184,0.1838,0.1837,0.1836,0.1812,0.1813,0,0,0,0,0,0,0.2132,0.2118,0.2048,0.2043,0.2074,0.2018,0.2008,0.1995,0.1938,0.1929,0.1956,0.1952,0.1882,0.1875,0.1869,0.1869,0.1838,0.1835,0.1834,0.1811,0.1812,0.1813,0,0,0,0,0,0,0.2135,0.2127,0.2051,0.2079,0.2068,0.2018,0.2003,0.1994,0.198,0.1929,0.1919,0.1952,0.1881,0.1873,0.1856,0.1865,0.1834,0.1832,0.181,0.1812,0.1813,0.1869,0,0,0,0,0,0,0.2138,0.2128,0.2129,0.208,0.2067,0.204,0.2003,0.1993,0.1977,0.1971,0.1923,0.1914,0.1879,0.186,0.1854,0.1861,0.183,0.1809,0.1811,0.1812,0.1866,0.1872,0.1877,0,0,0,0,0,0.2141,0.2148,0.213,0.2122,0.2068,0.2041,0.2034,0.1994,0.1978,0.1978,0.1945,0.1916,0.1865,0.1859,0.1851,0.1858,0.1809,0.1811,0.1812,0.1863,0.1871,0.1877,0,0,0,0,0,0,0.22,0.2141,0.212,0.2111,0.2082,0.2031,0.203,0.2003,0.1977,0.1974,0.1925,0.1914,0.1903,0.1878,0.1872,0.1858,0.1833,0.1833,0.1874,0.1881,0.1886,0.1892,0.1828,0,0,0,0,0,0.2212,0.2196,0.2144,0.2142,0.2128,0.2082,0.2069,0.2041,0.2008,0.1995,0.196,0.1929,0.1906,0.1892,0.1868,0.1861,0.185,0.1862,0.1868,0.1873,0.1874,0.1868,0.1873,0.1819,0.1819,0.1819,0,0,0.2237,0.2202,0.2195,0.2153,0.2126,0.211,0.2072,0.2056,0.2043,0.1992,0.1974,0.1948,0.1909,0.1898,0.1891,0.1877,0.1886,0.1875,0.1879,0.1878,0.187,0.1875,0.188,0.1821,0.182,0.182,0,0,0.2273,0.2246,0.224,0.2214,0.2175,0.2144,0.2143,0.2096,0.2076,0.2058,0.2019,0.2002,0.1963,0.1937,0.1919,0.1944,0.1916,0.1938,0.1966,0.1961,0.1965,0.1969,0.1977,0.1981,0.1939,0.1939,0.1939,0,0.2309,0.2283,0.2241,0.2227,0.2209,0.2162,0.2156,0.2133,0.2087,0.2076,0.2061,0.2011,0.1982,0.1963,0.1969,0.1956,0.1952,0.1943,0.1968,0.1971,0.1974,0.1982,0.1985,0.1942,0.1941,0.1941,0.1941,0,0.2328,0.2311,0.2311,0.2269,0.225,0.2241,0.2196,0.2182,0.2156,0.2126,0.2107,0.207,0.2037,0.203,0.2004,0.2008,0.2,0.1978,0.1952,0.1983,0.1989,0.1992,0.1946,0.1945,0.1944,0.1943,0,0,0.2401,0.2335,0.2336,0.2315,0.2268,0.2253,0.224,0.2209,0.2198,0.2168,0.2155,0.2123,0.2101,0.2081,0.2051,0.2046,0.2068,0.2023,0.2022,0.2033,0.2068,0.2086,0.2091,0.2048,0.2048,0.2049,0.2072,0,0.243,0.2406,0.2366,0.2354,0.2337,0.2292,0.228,0.2249,0.2221,0.2201,0.2169,0.2147,0.212,0.2107,0.2101,0.2067,0.2074,0.2064,0.2035,0.2035,0.2047,0.2094,0.2113,0.2136,0.2074,0.2074,0.2075,0,0.2461,0.2434,0.2421,0.2373,0.2365,0.2355,0.2323,0.2305,0.2268,0.2247,0.2224,0.2191,0.2174,0.215,0.2125,0.212,0.2105,0.2086,0.2086,0.2082,0.2057,0.2092,0.2143,0.2147,0.2078,0.2078,0.2078,0,0.2516,0.2476,0.2462,0.2446,0.2391,0.2385,0.2362,0.2324,0.2308,0.2278,0.2267,0.2236,0.2219,0.2195,0.2154,0.2141,0.2134,0.2107,0.2116,0.2117,0.2117,0.2118,0.2167,0.2107,0.2107,0.2107,0.2107,0,0.2553,0.2546,0.2486,0.2478,0.2468,0.2422,0.2414,0.2386,0.2353,0.2338,0.2296,0.2283,0.2229,0.2209,0.2177,0.2161,0.2153,0.2135,0.2127,0.214,0.2142,0.213,0.2127,0.2108,0.2108,0.2108,0.2107,0,0.2613,0.2572,0.2554,0.2503,0.249,0.2485,0.2441,0.2431,0.2399,0.238,0.2373,0.2323,0.2297,0.2254,0.2215,0.2193,0.2183,0.2169,0.2196,0.2191,0.2202,0.2202,0.2246,0.225,0.2188,0.2188,0.2189,0,0.264,0.2633,0.2582,0.2569,0.2547,0.2526,0.2509,0.2463,0.2446,0.2403,0.2398,0.2368,0.2343,0.2303,0.2263,0.2232,0.2217,0.2234,0.2212,0.2224,0.2217,0.2218,0.2217,0.224,0.2241,0.2241,0.2242,0,0.2691,0.2671,0.2648,0.2617,0.2598,0.2571,0.2542,0.2534,0.2481,0.2464,0.2437,0.2417,0.2377,0.2348,0.2312,0.2286,0.2255,0.2249,0.225,0.2263,0.2279,0.227,0.221,0.2249,0.2248,0.2248,0.2247,0.2247,0.2735,0.2727,0.269,0.2665,0.2638,0.2612,0.26,0.2566,0.2543,0.2508,0.2481,0.2456,0.2418,0.2366,0.2342,0.2321,0.2307,0.2308,0.2308,0.2309,0.2314,0.2282,0.2314,0.2314,0.2314,0.2313,0.2313,0,0.2785,0.2758,0.2735,0.2697,0.2677,0.2649,0.2616,0.2601,0.2579,0.2547,0.2522,0.249,0.2462,0.2419,0.2387,0.2378,0.2362,0.2371,0.2371,0.2366,0.2328,0.2331,0.2383,0.2383,0.2383,0.2383,0.2383,0.2383,0.2808,0.2793,0.2769,0.274,0.2712,0.2688,0.2671,0.2646,0.262,0.2587,0.2563,0.2535,0.2498,0.2462,0.2434,0.2422,0.2412,0.2425,0.2409,0.2375,0.2368,0.2362,0.2365,0.2423,0.2424,0.2448,0.2448,0.2449]}]]